Content
SEND FEEDBACK

Daily
Averages
Monthly
Summary
United States of America

GOODYEARS BAR, CALIFORNIA


Home > North America > United States > California
Elevation: 3369 feet     Latitude: 39 34N     Longitude: 120 50W

WEATHER
 
SELECT A DAY
Number of Records: 231,031;   Date Range: 1/1/95 - 7/29/14
 
SHARE

PRINT THIS DATA

[ ← Previous Day ]
WEATHER ALMANAC - FEBRUARY 13, 2013
[ Next Day → ]
[ °C ]   °F
Weather ElementAverageHighLow
Temperature46.6 °F54 °F (1:52 pm)41 °F (2:52 am)
Dewpoint21.5 °F25 °F (6:52 pm)17.1 °F (2:52 am)
Humidity37.6 %45 % (11:52 pm)26 % (1:52 pm)
Barometer30.22 in30.26 in (1:52 am)30.17 in (2:52 pm)
Wind Speed6 mph10.4 mph (12:52 pm)
Wind Gust19.6 mph (11:52 am)
Weather ElementAverage
Visibility10 mi
Wind DirectionNE (45.2 °)

Weather ElementTotal
Precipitation---
Heating Degree Days17.5 (Base 65)
Averaged from 23 records on February 13, 2013
WEATHER CONDITIONS BREAKOUT
WIND DIRECTION BREAKOUT
WEATHER BY HOUR - FEBRUARY 13, 2013
[ °C ]   °F
Local TimeTemperatureDewpointHumidityBarometerVisibilityWind DirectionWind SpeedGust SpeedPrecipitationEventsConditions
1:52 AM42.1 °F19.9 °F41 %30.26 in10.0 miVariable6.9 mphClear
2:52 AM41.0 °F17.1 °F38 %30.26 in10.0 miNE (50°)6.9 mphClear
3:52 AM41.0 °F17.1 °F38 %30.24 in10.0 miENE (60°)6.9 mphClear
4:52 AM41.0 °F19.0 °F41 %30.24 in10.0 miVariable5.8 mphClear
5:52 AM42.1 °F21.0 °F43 %30.24 in10.0 miEast (80°)3.5 mphClear
6:52 AM41.0 °F19.9 °F43 %30.24 in10.0 miNNE (30°)3.5 mphClear
7:52 AM43.0 °F21.0 °F42 %30.25 in10.0 miNE (40°)5.8 mphClear
8:52 AM45.0 °F21.9 °F40 %30.24 in10.0 miENE (60°)6.9 mphClear
9:52 AM48.9 °F24.1 °F38 %30.23 in10.0 miVariable6.9 mphClear
10:52 AM51.1 °F24.1 °F35 %30.23 in10.0 miNorth (350°)6.9 mphClear
11:52 AM53.1 °F23.0 °F31 %30.22 in10.0 miNE (40°)8.1 mph19.6 mphClear
12:52 PM53.1 °F21.9 °F30 %30.20 in10.0 miNNE (30°)10.4 mphClear
1:52 PM54.0 °F19.9 °F26 %30.18 in10.0 miVariable5.8 mphClear
2:52 PM54.0 °F21.0 °F28 %30.17 in10.0 miNE (50°)9.2 mphClear
3:52 PM54.0 °F19.9 °F26 %30.17 in10.0 miNorth (10°)3.5 mphClear
4:52 PM52.0 °F19.9 °F28 %30.18 in10.0 miVariable3.5 mphClear
5:52 PM48.0 °F24.1 °F39 %30.20 in10.0 miNNE (30°)4.6 mphClear
6:52 PM46.0 °F25.0 °F44 %30.22 in10.0 miENE (60°)5.8 mphClear
7:52 PM44.1 °F23.0 °F43 %30.22 in10.0 miNNE (30°)5.8 mphClear
8:52 PM44.1 °F23.0 °F43 %30.22 in10.0 miNE (40°)6.9 mphClear
9:52 PM45.0 °F21.9 °F40 %30.20 in10.0 miNNE (30°)5.8 mphClear
10:52 PM44.1 °F23.0 °F43 %30.20 in10.0 miVariable4.6 mphClear
11:52 PM43.0 °F23.0 °F45 %30.19 in10.0 miNE (50°)4.6 mphClear
Hourly data recorded from KBLU, located miles away from Goodyears Bar, California







STORIES FROM OUR PARTNERS